Meteo Giornale » Osservazioni meteo Stati Uniti (USA) » North Bend
ore: 10:56 - Osservazioni Meteo North Bend
Lat. 43° 25' N Lon. 124° 15' W Alt. 4 metri s.l.m.
16 °C
Sereno
Temp. 24 Ore
10 °C
20 °C
Ovest
14.8 Km/h
Dew point 13 °C
Umidità 82 %
Visibilità 10 Km
Il sole sorge alle ore 06:40
Il sole tramonta alle ore 19:54
| Data e Ora | Cielo e Fenomeni | T °C | DP °C | Um. % | Pres. hPa | Vis. km | Vento km/h | |
|---|---|---|---|---|---|---|---|---|
| Oggi h: 10:56 | Sereno | 16 | 13 | 82 | 1012 | 10 | O 14.8 | |
| Oggi h: 09:56 | Sereno | 15 | 12 | 82 | 1012 | 10 | NO 13 | |
| Oggi h: 08:56 | Sereno | 14 | 12 | 87 | 1012 | 10 | N 5.5 | |
| Oggi h: 07:56 | Sereno | 12 | 12 | 100 | 1012 | 10 | SE 9.3 | |
| Oggi h: 06:56 | Sereno | 10 | 9 | 93 | 1012 | 10 | N 5.5 | |
| Oggi h: 05:56 | Sereno | 11 | 10 | 93 | 1011 | 10 | N 5.5 | |
| Oggi h: 04:56 | Sereno | 11 | 11 | 100 | 1011 | 10 | N 5.5 | |
| Oggi h: 03:56 | Sereno | 11 | 11 | 100 | 1012 | 10 | E/SE 7.4 | |
| Oggi h: 02:56 | Sereno | 12 | 11 | 93 | 1012 | 10 | SE 7.4 | |
| Oggi h: 01:56 | Sereno | 12 | 11 | 93 | 1012 | 13 | N 0 | |
| Oggi h: 00:56 | Sereno | 13 | 12 | 93 | 1013 | 10 | N 11.1 | |
| Ieri h: 23:56 | Sereno | 13 | 12 | 93 | 1014 | 10 | N 5.5 | |
| Ieri h: 22:56 | Sereno | 14 | 12 | 87 | 1014 | 10 | N 5.5 | |
| Ieri h: 21:56 | Sereno | 14 | 13 | 93 | 1014 | 10 | N 9.3 | |
| Ieri h: 20:56 | Sereno | 15 | 13 | 87 | 1015 | 10 | N 22.2 | |
| Ieri h: 19:56 | Sereno | 16 | 13 | 82 | 1014 | 10 | N 33.3 | |
| Ieri h: 18:56 | Sereno | 17 | 13 | 77 | 1015 | 10 | N 35.2 | |
| Ieri h: 17:56 | Sereno | 18 | 12 | 67 | 1015 | 10 | N 38.8 | |
| Ieri h: 16:56 | Sereno | 19 | 12 | 63 | 1016 | 10 | N 38.8 | |
| Ieri h: 15:56 | Sereno | 19 | 11 | 59 | 1016 | 10 | N 38.8 | |
| Ieri h: 14:56 | Sereno | 19 | 12 | 63 | 1017 | 10 | N 40.7 | |
| Ieri h: 13:56 | Sereno | 19 | 11 | 59 | 1018 | 10 | N 38.8 | |
| Ieri h: 12:56 | Sereno | 20 | 11 | 56 | 1018 | 10 | N 29.6 | |
| Ieri h: 11:56 | Sereno | 20 | 11 | 56 | 1019 | 10 | N/NO 29.6 | |



